Regional Weather Roundup
Issued by NWS

Home | Current Version | Previous Version | Graphics & Text | Print | Product List | Glossary On
Versions: 1 2 3 4 5 6 7 8 9 10 11 12 13 14 15 16 17 18 19 20 21 22 23 24 25 26 27 28 29 30 31 32 33 34 35 36 37 38 39 40 41 42 43 44 45 46 47 48 49 50
000
ASUS43 KOAX 230002
RWRNE

WEATHER ROUNDUP FOR NEBRASKA
NATIONAL WEATHER SERVICE OMAHA NE
700 PM CDT WED OCT 22 2014

NOTES: SATELLITE DATA IS BEING USED TO AUGMENT CLOUD COVER ABOVE
       12000 FEET.
       "FAIR" INDICATES FEW OR NO CLOUDS BELOW 12,000 FEET WITH NO
       SIGNIFICANT WEATHER AND/OR OBSTRUCTIONS TO VISIBILITY.

  * THESE STATIONS DO NOT REPORT WEATHER SUCH AS RAIN...SNOW OR FOG.

NEZ001>004-019>022-054>056-230100-
NEBRASKA PANHANDLE

CITY           SKY/WX    TMP DP  RH WIND       PRES   REMARKS
SCOTTSBLUFF    PTCLDY    61  24  24 NW9       30.03R
6HR MIN TEMP:  61; 6HR MAX TEMP:  67;

ALLIANCE       CLEAR     54  33  45 CALM      30.04R
6HR MIN TEMP:  54; 6HR MAX TEMP:  65;

CHADRON        CLEAR     60  29  30 CALM      30.02R
6HR MIN TEMP:  59; 6HR MAX TEMP:  65;

KIMBALL        PTCLDY    52  34  49 E5        30.08R
SIDNEY         PTCLDY    57  33  40 E5        30.08R
6HR MIN TEMP:  57; 6HR MAX TEMP:  66; 6HR PCP: TRACE;

$$

NEZ057>060-069>072-079>082-230100-
SOUTHWEST NEBRASKA

CITY           SKY/WX    TMP DP  RH WIND       PRES   REMARKS
NORTH PLATTE   CLEAR     58  51  78 E6        30.02R
6HR MIN TEMP:  58; 6HR MAX TEMP:  70;

IMPERIAL       CLEAR     61  38  42 N7        30.04R
6HR MIN TEMP:  61; 6HR MAX TEMP:  72;

LEXINGTON      CLEAR     62  55  76 CALM      30.02R
MCCOOK         CLEAR     64  50  60 E5        30.02R
6HR MIN TEMP:  63; 6HR MAX TEMP:  72;

OGALLALA       CLEAR     57  35  44 N5        30.04R
$$

NEZ005>010-023>029-035>040-094-230100-
NORTH CENTRAL NEBRASKA

CITY           SKY/WX    TMP DP  RH WIND       PRES   REMARKS
VALENTINE      CLEAR     58  39  49 CALM      30.03R
6HR MIN TEMP:  58; 6HR MAX TEMP:  66;

AINSWORTH      CLEAR     56  44  62 CALM      30.03R
BROKEN BOW     CLEAR     58  54  86 N5        30.02R
6HR MIN TEMP:  58; 6HR MAX TEMP:  66; 6HR PCP:  0.13;

O`NEILL        CLOUDY    56  54  92 CALM      30.03R
ORD            MOCLDY    58  55  90 N3        30.01R
6HR MIN TEMP:  57; 6HR MAX TEMP:  66; 6HR PCP:  0.14;

THEDFORD       CLEAR     59  44  57 CALM      30.03R
$$

NEZ041-046>049-061>064-073>077-083>087-230100-
SOUTH CENTRAL NEBRASKA

CITY           SKY/WX    TMP DP  RH WIND       PRES   REMARKS
GRAND ISLAND   CLOUDY    62  59  90 SE3       30.02R FOG
6HR MIN TEMP:  62; 6HR MAX TEMP:  72; 6HR PCP:  0.76;

AURORA         CLOUDY    62  61  97 CALM      30.01S
HASTINGS       CLOUDY    62  57  83 CALM      30.01R
6HR MIN TEMP:  61; 6HR MAX TEMP:  74; 6HR PCP:  0.41;

HEBRON         CLOUDY    62  59  91 E6        30.02R FOG
HOLDREGE       PTCLDY    60  56  84 CALM      30.01R
KEARNEY *      PTCLDY    61  57  88 NW3       30.03R
YORK           RAIN      63  59  88 S13       30.03R
$$

NEZ011>018-030>034-042>045-230100-
NORTHEAST NEBRASKA

CITY           SKY/WX    TMP DP  RH WIND       PRES   REMARKS
NORFOLK        CLOUDY    60  58  92 SW3       30.01R
6HR MIN TEMP:  59; 6HR MAX TEMP:  77; 6HR PCP:  0.58;

ALBION         CLOUDY    59  57  93 CALM      30.01S FOG
BLAIR          RAIN      65  60  83 NW9G21    30.04R
COLUMBUS *     CLOUDY    63  57  82 SW6       30.03R
FREMONT        HVY RAIN  64  62  94 W9        30.05R
TEKAMAH        LGT RAIN  64  60  87 W8        30.03R
6HR MIN TEMP:  64; 6HR MAX TEMP:  75; 6HR PCP:  0.06;

WAYNE          CLOUDY    60  58  94 S5        30.01R
$$

NEZ050>053-065>068-078-088>093-230100-
SOUTHEAST NEBRASKA

CITY           SKY/WX    TMP DP  RH WIND       PRES   REMARKS
LINCOLN        RAIN      64  61  90 W6        30.05R FOG
6HR MIN TEMP:  64; 6HR MAX TEMP:  80; 6HR PCP:  0.25;

OMAHA EPPLEY   CLOUDY    71  53  52 SE17      30.00R
6HR MIN TEMP:  69; 6HR MAX TEMP:  76;

BEATRICE       RAIN      65  58  76 W13       30.03R
FALLS CITY     LGT RAIN  68  56  65 SE9       30.04R
6HR MIN TEMP:  68; 6HR MAX TEMP:  77; 6HR PCP: TRACE;

NEBRASKA CITY  PTCLDY    69  51  52 S12       30.03R
PLATTSMOUTH    MOCLDY    70  53  54 SE9       30.02R
$$

NEZ044-045-051>053-067-230100-
OMAHA AREA

CITY           SKY/WX    TMP DP  RH WIND       PRES   REMARKS
OMAHA EPPLEY   CLOUDY    71  53  52 SE17      30.00R
6HR MIN TEMP:  69; 6HR MAX TEMP:  76;

BLAIR          RAIN      65  60  83 NW9G21    30.04R
FREMONT        HVY RAIN  64  62  94 W9        30.05R
MILLARD        LGT RAIN  67  61  79 W13G29    30.03R
OFFUTT AFB     MOCLDY    69  56  62 SE13      30.00R
PLATTSMOUTH    MOCLDY    70  53  54 SE9       30.02R
WAHOO          HVY RAIN  63  60  90 W7        30.05R
$$



USA.gov is the U.S. government's official web portal to all federal, state and local government web resources and services.